TimeCDT,TemperatureF,Dew PointF,Humidity,Sea Level PressureIn,VisibilityMPH,Wind Direction,Wind SpeedMPH,Gust SpeedMPH,PrecipitationIn,Events,Conditions,WindDirDegrees,DateUTC
12:15 AM,38.8,35.4,88,30.27,10.0,South,3.5,-,N/A,,Clear,180,2013-04-25 05:15:00
12:35 AM,38.7,33.4,81,30.26,10.0,South,5.8,-,N/A,,Clear,180,2013-04-25 05:35:00
12:55 AM,37.8,33.6,85,30.25,10.0,SSE,5.8,-,N/A,,Clear,160,2013-04-25 05:55:00
1:15 AM,37.8,32.9,83,30.25,10.0,SSE,4.6,-,N/A,,Clear,160,2013-04-25 06:15:00
1:35 AM,36.5,33.3,88,30.26,10.0,Calm,Calm,-,N/A,,Clear,0,2013-04-25 06:35:00
1:55 AM,36.1,32.5,87,30.26,10.0,South,4.6,-,N/A,,Clear,180,2013-04-25 06:55:00
2:15 AM,36.5,33.4,89,30.25,10.0,South,4.6,-,N/A,,Clear,190,2013-04-25 07:15:00
2:35 AM,36.9,33.8,89,30.26,10.0,South,6.9,-,N/A,,Clear,180,2013-04-25 07:35:00
2:55 AM,37.8,33.1,83,30.25,10.0,South,6.9,-,N/A,,Clear,180,2013-04-25 07:55:00
3:15 AM,37.4,32.9,84,30.26,10.0,South,5.8,-,N/A,,Clear,180,2013-04-25 08:15:00
3:35 AM,37.0,32.4,83,30.26,10.0,South,4.6,-,N/A,,Clear,180,2013-04-25 08:35:00
3:55 AM,36.7,33.3,87,30.26,10.0,South,3.5,-,N/A,,Clear,170,2013-04-25 08:55:00
4:15 AM,36.0,32.7,88,30.27,10.0,South,3.5,-,N/A,,Clear,170,2013-04-25 09:15:00
4:35 AM,36.5,32.7,86,30.27,10.0,South,4.6,-,N/A,,Clear,170,2013-04-25 09:35:00
4:55 AM,37.0,32.4,83,30.27,10.0,South,6.9,-,N/A,,Clear,170,2013-04-25 09:55:00
5:15 AM,36.7,32.0,83,30.26,10.0,SSE,5.8,-,N/A,,Clear,160,2013-04-25 10:15:00
5:35 AM,36.5,32.2,84,30.26,10.0,SSE,8.1,-,N/A,,Clear,160,2013-04-25 10:35:00
5:55 AM,37.4,32.4,82,30.26,10.0,South,6.9,-,N/A,,Clear,170,2013-04-25 10:55:00
6:15 AM,37.8,32.9,83,30.27,10.0,South,4.6,-,N/A,,Clear,180,2013-04-25 11:15:00
6:35 AM,37.8,33.1,83,30.27,10.0,Calm,Calm,-,N/A,,Clear,0,2013-04-25 11:35:00
6:55 AM,39.6,34.7,83,30.27,10.0,South,6.9,-,N/A,,Clear,170,2013-04-25 11:55:00
7:15 AM,42.1,36.1,79,30.28,10.0,South,5.8,-,N/A,,Clear,190,2013-04-25 12:15:00
7:35 AM,43.9,36.5,75,30.27,10.0,South,9.2,-,N/A,,Clear,180,2013-04-25 12:35:00
7:55 AM,45.5,37.2,73,30.29,10.0,SSW,10.4,-,N/A,,Clear,200,2013-04-25 12:55:00
8:15 AM,46.6,37.6,71,30.29,10.0,SSW,12.7,-,N/A,,Clear,210,2013-04-25 13:15:00
8:35 AM,48.0,36.1,63,30.30,10.0,SW,12.7,-,N/A,,Clear,220,2013-04-25 13:35:00
8:55 AM,49.3,36.1,61,30.30,10.0,SW,11.5,-,N/A,,Clear,220,2013-04-25 13:55:00
9:15 AM,50.5,36.7,59,30.30,10.0,WSW,16.1,20.7,N/A,,Clear,240,2013-04-25 14:15:00
9:35 AM,51.1,36.5,57,30.31,10.0,WSW,15.0,19.6,N/A,,Clear,240,2013-04-25 14:35:00
9:55 AM,51.8,37.4,58,30.32,10.0,WSW,11.5,20.7,N/A,,Clear,250,2013-04-25 14:55:00
10:15 AM,52.7,37.4,56,30.33,10.0,WSW,13.8,18.4,N/A,,Clear,250,2013-04-25 15:15:00
10:35 AM,53.1,39.0,59,30.33,10.0,WSW,11.5,17.3,N/A,,Clear,250,2013-04-25 15:35:00
10:55 AM,53.6,37.4,54,30.34,10.0,West,15.0,19.6,N/A,,Clear,280,2013-04-25 15:55:00
11:15 AM,54.5,37.6,53,30.34,10.0,WSW,15.0,18.4,N/A,,Clear,250,2013-04-25 16:15:00
11:35 AM,54.7,37.6,53,30.34,10.0,WSW,12.7,-,N/A,,Clear,250,2013-04-25 16:35:00
11:55 AM,55.4,38.5,53,30.34,10.0,SW,12.7,17.3,N/A,,Clear,230,2013-04-25 16:55:00
12:15 PM,55.6,38.3,52,30.34,10.0,West,11.5,-,N/A,,Clear,270,2013-04-25 17:15:00
12:35 PM,56.3,37.8,50,30.34,10.0,West,12.7,18.4,N/A,,Clear,280,2013-04-25 17:35:00
12:55 PM,55.6,36.9,49,30.34,10.0,WNW,13.8,-,N/A,,Scattered Clouds,290,2013-04-25 17:55:00
1:15 PM,56.3,36.3,47,30.34,10.0,West,16.1,21.9,N/A,,Scattered Clouds,270,2013-04-25 18:15:00
1:35 PM,56.5,34.2,43,30.34,10.0,WNW,12.7,19.6,N/A,,Scattered Clouds,290,2013-04-25 18:35:00
1:55 PM,56.8,32.4,40,30.34,10.0,WNW,10.4,20.7,N/A,,Scattered Clouds,300,2013-04-25 18:55:00
2:15 PM,57.0,32.2,39,30.34,10.0,WSW,12.7,19.6,N/A,,Clear,250,2013-04-25 19:15:00
2:35 PM,57.6,34.2,41,30.35,10.0,WNW,12.7,-,N/A,,Scattered Clouds,290,2013-04-25 19:35:00
2:55 PM,57.7,33.8,41,30.34,10.0,West,12.7,16.1,N/A,,Scattered Clouds,280,2013-04-25 19:55:00
3:15 PM,57.7,31.8,37,30.34,10.0,West,13.8,20.7,N/A,,Clear,270,2013-04-25 20:15:00
3:35 PM,57.9,31.6,37,30.34,10.0,West,15.0,20.7,N/A,,Clear,260,2013-04-25 20:35:00
3:55 PM,57.7,31.3,37,30.33,10.0,West,8.1,-,N/A,,Clear,280,2013-04-25 20:55:00
4:15 PM,58.3,32.4,38,30.34,10.0,WSW,12.7,-,N/A,,Clear,250,2013-04-25 21:15:00
4:35 PM,57.9,32.0,37,30.34,10.0,West,13.8,-,N/A,,Clear,270,2013-04-25 21:35:00
4:55 PM,57.9,31.6,37,30.34,10.0,West,8.1,-,N/A,,Clear,280,2013-04-25 21:55:00
5:15 PM,58.1,32.4,38,30.34,10.0,West,13.8,17.3,N/A,,Clear,280,2013-04-25 22:15:00
5:35 PM,58.1,31.8,37,30.35,10.0,West,11.5,-,N/A,,Clear,270,2013-04-25 22:35:00
5:55 PM,58.1,32.5,38,30.34,10.0,WNW,8.1,-,N/A,,Clear,300,2013-04-25 22:55:00
6:15 PM,57.4,32.2,39,30.34,10.0,WNW,8.1,-,N/A,,Clear,300,2013-04-25 23:15:00
6:35 PM,56.8,31.8,39,30.34,10.0,West,9.2,-,N/A,,Clear,260,2013-04-25 23:35:00
6:55 PM,55.4,34.5,45,30.34,10.0,West,4.6,-,N/A,,Clear,280,2013-04-25 23:55:00
7:15 PM,53.6,34.7,49,30.34,10.0,West,4.6,-,N/A,,Clear,280,2013-04-26 00:15:00
7:35 PM,52.7,37.8,57,30.35,10.0,WNW,3.5,-,N/A,,Clear,300,2013-04-26 00:35:00
7:55 PM,50.4,37.4,61,30.35,10.0,Calm,Calm,-,N/A,,Clear,0,2013-04-26 00:55:00
8:15 PM,49.5,39.6,69,30.35,10.0,Calm,Calm,-,N/A,,Clear,0,2013-04-26 01:15:00
8:35 PM,48.9,39.9,71,30.36,10.0,Calm,Calm,-,N/A,,Clear,0,2013-04-26 01:35:00
8:55 PM,46.4,38.8,75,30.37,10.0,South,4.6,-,N/A,,Clear,170,2013-04-26 01:55:00
9:15 PM,46.2,37.0,70,30.38,10.0,Calm,Calm,-,N/A,,Clear,0,2013-04-26 02:15:00
9:35 PM,45.0,37.8,76,30.38,10.0,Calm,Calm,-,N/A,,Clear,0,2013-04-26 02:35:00
9:55 PM,43.2,37.2,80,30.38,10.0,Calm,Calm,-,N/A,,Clear,0,2013-04-26 02:55:00
10:15 PM,42.6,38.1,84,30.38,10.0,Calm,Calm,-,N/A,,Clear,0,2013-04-26 03:15:00
10:35 PM,42.8,37.6,82,30.37,10.0,SE,3.5,-,N/A,,Clear,140,2013-04-26 03:35:00
10:55 PM,41.9,37.9,86,30.38,10.0,Calm,Calm,-,N/A,,Clear,0,2013-04-26 03:55:00
11:15 PM,41.9,38.3,87,30.37,10.0,Calm,Calm,-,N/A,,Clear,0,2013-04-26 04:15:00
11:35 PM,42.3,38.1,85,30.37,10.0,Calm,Calm,-,N/A,,Clear,0,2013-04-26 04:35:00
11:55 PM,41.9,37.9,86,30.37,10.0,Calm,Calm,-,N/A,,Clear,0,2013-04-26 04:55:00